Change the Weather History Date:

Sunday, March 30, 2014

  Actual Average Record
Temperature  
Mean Temperature 45 °F -  
Max Temperature 60 °F 59 °F 82 °F (1986)
Min Temperature 30 °F 40 °F 23 °F (1972)
Degree Days  
Heating Degree Days 20    
Moisture  
Dew Point 33 °F    
Average Humidity 72    
Maximum Humidity 100    
Minimum Humidity 34    
Precipitation  
Precipitation 0.00 in - - ()
Sea Level Pressure  
Sea Level Pressure 30.22 in    
Wind  
Wind Speed 3 mph (SSW)    
Max Wind Speed 12 mph    
Max Gust Speed -    
Visibility 7 miles    
Events Fog    
Averages and records for this station are not official NWS values.
T = Trace of Precipitation, MM = Missing Value Source: NWS Daily Summary

Daily Weather History Graph

Daily Weather History Graph

Search for Another Location

Airport or City:

Trip Planner

Search our weather history database for the weather conditions in past years. The results will help you decide how hot, cold, wet, or windy it might be!

Date:

Astronomy

Mar. 30, 2014 Rise Set
Actual Time 6:44 AM CDT 7:17 PM CDT
Civil Twilight 6:18 AM CDT 7:43 PM CDT
Nautical Twilight 5:46 AM CDT 8:14 PM CDT
Astronomical Twilight 5:15 AM CDT 8:46 PM CDT
Moon 6:30 AM CDT (3/30) 7:29 PM CDT (3/30)
Length of Visible Light 13h 25m
Length of Day
12h 32m
Waning Crescent, 0% of the Moon is Illuminated
Mar 30
Waning Crescent
Mar 30
New
Apr 7
First Quarter
Apr 15
Full
Apr 22
Last Quarter

Hourly Weather History & Observations

Time (CDT) Temp. Windchill Dew Point Humidity Pressure Visibility Wind Dir Wind Speed Gust Speed Precip Events Conditions
12:15 AM 35.6 °F - 32.0 °F 87% 30.26 in 4.0 mi Calm Calm - N/A   Clear
12:35 AM 33.8 °F - 32.0 °F 93% 30.26 in 3.0 mi Calm Calm - N/A   Clear
12:55 AM 33.8 °F - 32.0 °F 93% 30.27 in 3.0 mi Calm Calm - N/A   Clear
1:15 AM 33.8 °F 30.8 °F 32.0 °F 93% 30.27 in 3.0 mi NNW 3.5 mph - N/A   Clear
1:35 AM 35.6 °F 32.8 °F 32.0 °F 87% 30.28 in 5.0 mi NW 3.5 mph - N/A   Clear
1:55 AM 35.6 °F 31.7 °F 32.0 °F 87% 30.28 in 5.0 mi WNW 4.6 mph - N/A   Clear
2:15 AM 35.6 °F 32.8 °F 32.0 °F 87% 30.28 in 5.0 mi WNW 3.5 mph - N/A   Clear
2:35 AM 35.6 °F - 32.0 °F 87% 30.28 in 4.0 mi Calm Calm - N/A   Clear
2:55 AM 33.8 °F 30.8 °F 32.0 °F 93% 30.29 in 4.0 mi NW 3.5 mph - N/A   Clear
3:15 AM 35.6 °F - 32.0 °F 87% 30.29 in 4.0 mi Calm Calm - N/A   Clear
3:35 AM 35.6 °F - 32.0 °F 87% 30.28 in 4.0 mi Calm Calm - N/A   Clear
3:55 AM 32.0 °F - 30.2 °F 93% 30.27 in 3.0 mi Calm Calm - N/A   Clear
4:15 AM 32.0 °F - 30.2 °F 93% 30.27 in 1.8 mi Calm Calm - N/A   Mist
4:35 AM 30.2 °F - 28.4 °F 93% 30.26 in 2.0 mi Calm Calm - N/A   Clear
4:55 AM 32.0 °F - 30.2 °F 93% 30.26 in 1.0 mi Calm Calm - N/A   Mist
5:15 AM 32.0 °F - 30.2 °F 93% 30.26 in 1.2 mi Calm Calm - N/A   Mist
5:35 AM 30.2 °F 26.7 °F 30.2 °F 100% 30.27 in 1.2 mi West 3.5 mph - N/A   Mist
5:55 AM 32.0 °F - 30.2 °F 93% 30.27 in 1.2 mi Calm Calm - N/A   Mist
6:15 AM 30.2 °F - 30.2 °F 100% 30.27 in 1.2 mi Calm Calm - N/A   Mist
6:50 AM 30.2 °F 26.7 °F 30.2 °F 100% 30.28 in 0.5 mi WSW 3.5 mph - N/A Fog Fog
7:50 AM 32.0 °F 28.7 °F 32.0 °F 100% 30.29 in 1.0 mi WSW 3.5 mph - N/A   Mostly Cloudy
8:50 AM 37.4 °F 32.8 °F 33.8 °F 87% 30.30 in 4.0 mi NNE 5.8 mph - N/A   Partly Cloudy
9:50 AM 41.0 °F 39.0 °F 33.8 °F 76% 30.32 in 7.0 mi South 3.5 mph - N/A   Clear
10:50 AM 46.4 °F 42.4 °F 33.8 °F 62% 30.31 in 10.0 mi South 8.1 mph - N/A   Clear
11:50 AM 48.2 °F - 32.0 °F 54% 30.31 in 20.0 mi SW 4.6 mph - N/A   Clear
12:50 PM 50.0 °F - 32.0 °F 50% 30.27 in 20.0 mi WSW 4.6 mph - N/A   Clear
1:47 PM 55.4 °F - 32.0 °F 41% 30.23 in 25.0 mi SSE 4.6 mph - N/A   Clear
2:58 PM 59.0 °F - 32.0 °F 36% 30.18 in 25.0 mi SSW 6.9 mph - N/A   Clear
3:58 PM 60.8 °F - 35.6 °F 39% 30.17 in 25.0 mi SSW 11.5 mph - N/A   Partly Cloudy
4:48 PM 60.8 °F - 32.0 °F 34% 30.16 in 25.0 mi South 9.2 mph - N/A   Partly Cloudy
5:58 PM 60.8 °F - 33.8 °F 36% 30.14 in 25.0 mi South 9.2 mph - N/A   Partly Cloudy
6:35 PM 57.2 °F - 35.6 °F 44% 30.13 in 10.0 mi South 5.8 mph - N/A   Clear
6:55 PM 57.2 °F - 33.8 °F 41% 30.13 in 10.0 mi SSE 6.9 mph - N/A   Clear
7:15 PM 55.4 °F - 35.6 °F 47% 30.13 in 10.0 mi South 6.9 mph - N/A   Clear
7:35 PM 50.0 °F - 37.4 °F 62% 30.13 in 10.0 mi South 5.8 mph - N/A   Clear
7:55 PM 48.2 °F - 35.6 °F 62% 30.13 in 10.0 mi South 5.8 mph - N/A   Clear
8:15 PM 48.2 °F - 35.6 °F 62% 30.13 in 10.0 mi SSE 5.8 mph - N/A   Clear
8:35 PM 51.8 °F - 35.6 °F 54% 30.13 in 10.0 mi SSE 5.8 mph - N/A   Clear
8:55 PM 48.2 °F - 35.6 °F 62% 30.13 in 10.0 mi SSE 5.8 mph - N/A   Clear
9:15 PM 46.4 °F 44.3 °F 35.6 °F 66% 30.13 in 10.0 mi South 4.6 mph - N/A   Clear
9:35 PM 46.4 °F 44.3 °F 35.6 °F 66% 30.13 in 10.0 mi SSE 4.6 mph - N/A   Clear
9:55 PM 46.4 °F 44.3 °F 33.8 °F 62% 30.13 in 10.0 mi SSE 4.6 mph - N/A   Clear
10:15 PM 44.6 °F 41.4 °F 33.8 °F 66% 30.13 in 10.0 mi South 5.8 mph - N/A   Clear
10:35 PM 46.4 °F 45.2 °F 33.8 °F 62% 30.13 in 10.0 mi South 3.5 mph - N/A   Clear
10:55 PM 44.6 °F 41.4 °F 35.6 °F 71% 30.12 in 10.0 mi SSE 5.8 mph - N/A   Clear
11:15 PM 46.4 °F 44.3 °F 33.8 °F 62% 30.13 in 10.0 mi South 4.6 mph - N/A   Clear
11:35 PM 46.4 °F - 35.6 °F 66% 30.13 in 10.0 mi Calm Calm - N/A   Clear
11:55 PM 46.4 °F - 35.6 °F 66% 30.13 in 10.0 mi Calm Calm - N/A   Clear